[[{"header":{"parameterUnit":"m.s-1","parameterCategory":1,"la1":30.2991,"la2":30.254,"lo1":-89.0895,"lo2":-89.0444,"dy":0.0017,"dx":0.0017,"nx":28,"ny":28,"refTime":"2024-05-29T03:00:00:Z","depth":0,"parameterNumber":2,"parameterNumberName":"U-component_of_WINDS"},"data":[0,0,0,0,0,0,0,0,0,0,0,0,0,0,0,0,0,0,0,0,0,0,0,0,0,0,0,0,0,0,0,0,0,0,0,0,0,0,0,0,0,0,0,0,0,0,0,0,0,0,0,0,0,0,0,0,0,0,-2.4559,-2.4559,0,-2.4561,-2.4561,-2.4561,-2.4525,-2.4524,-2.4523,-2.4522,-2.4526,-2.4527,-2.4528,0,0,0,0,0,0,0,0,0,0,0,0,0,-2.4526,-2.4527,-2.4559,-2.4559,-2.4559,-2.4561,-2.4561,-2.4561,-2.4525,-2.4524,-2.4523,-2.4522,-2.4525,-2.4527,-2.4528,0,0,0,0,0,0,0,0,0,0,0,0,0,-2.4535,-2.4527,-2.4559,-2.4541,-2.4539,-2.4561,-2.4561,-2.4561,-2.4525,-2.4524,-2.4523,-2.4521,-2.4525,-2.4527,-2.4528,-2.4567,0,0,-2.4533,-2.4533,0,0,0,0,0,0,0,0,-2.4535,-2.4537,-2.4544,-2.4542,-2.4541,-2.4541,-2.4551,-2.4563,-2.4526,-2.4531,-2.4522,-2.452,-2.4532,-2.4533,-2.4537,-2.4567,-2.4567,-2.4533,-2.4534,-2.4534,-2.4535,0,0,0,0,0,0,0,-2.4534,-2.4536,-2.456,-2.4544,-2.4542,-2.4534,-2.4534,-2.4553,-2.454,-2.453,-2.4528,-2.4528,-2.4531,-2.4535,-2.4537,-2.4567,-2.4533,-2.4534,-2.4535,-2.4536,-2.4632,-2.4633,0,0,0,0,0,0,-2.4536,-2.4536,-2.456,-2.456,-2.4534,-2.4536,-2.4535,-2.4543,-2.454,-2.4538,-2.453,-2.4527,-2.4534,-2.4535,-2.4537,-2.4582,-2.4534,-2.4536,-2.4537,-2.463,-2.4632,-2.4634,0,0,0,0,0,0,-2.4535,-2.4538,-2.4559,-2.4547,-2.4549,-2.4538,-2.4546,-2.4543,-2.4547,-2.4539,-2.4537,-2.4536,-2.4532,-2.4534,-2.456,-2.4582,-2.4537,-2.4538,-2.4628,-2.4631,-2.4633,-2.4674,0,0,0,0,0,0,-2.4534,-2.4538,-2.4552,-2.4548,-2.455,-2.4582,-2.4548,-2.4545,-2.455,-2.4546,-2.4545,-2.4543,-2.4531,-2.4558,-2.4562,-2.4583,-2.4539,-2.4626,-2.4629,-2.4632,-2.467,-2.4677,-2.4683,0,0,0,0,0,-2.4533,-2.4563,-2.4553,-2.4556,-2.4567,-2.4583,-2.4585,-2.457,-2.4552,-2.4566,-2.4561,-2.4543,-2.458,-2.4561,-2.4565,-2.4587,-2.4625,-2.4628,-2.4632,-2.4667,-2.4676,-2.4683,0,0,0,0,0,0,-2.457,-2.4562,-2.455,-2.458,-2.4582,-2.4577,-2.4594,-2.458,-2.4588,-2.4584,-2.4567,-2.4567,-2.4595,-2.4594,-2.4573,-2.4626,-2.4599,-2.4604,-2.4625,-2.4633,-2.4639,-2.4638,-2.454,0,0,0,0,0,-2.4581,-2.4594,-2.4587,-2.4614,-2.4616,-2.4605,-2.4612,-2.4601,-2.4603,-2.4604,-2.4601,-2.4604,-2.4617,-2.4625,-2.4636,-2.4671,-2.467,-2.4689,-2.4695,-2.47,-2.4704,-2.4724,-2.4732,-2.4646,-2.4646,-2.4646,0,0,-2.4605,-2.4602,-2.4612,-2.4621,-2.4622,-2.4637,-2.4606,-2.4623,-2.4634,-2.4607,-2.463,-2.4629,-2.4632,-2.4662,-2.4676,-2.4662,-2.4728,-2.4705,-2.4709,-2.471,-2.4728,-2.4736,-2.4743,-2.4648,-2.4648,-2.4648,0,0,-2.4655,-2.4655,-2.4677,-2.4679,-2.4681,-2.4674,-2.468,-2.4677,-2.4675,-2.4699,-2.4679,-2.4693,-2.4714,-2.4717,-2.4722,-2.4777,-2.476,-2.4781,-2.4814,-2.4833,-2.484,-2.4846,-2.4865,-2.4872,-2.4785,-2.4786,-2.4786,0,-2.4684,-2.4704,-2.469,-2.4709,-2.4714,-2.4691,-2.4714,-2.4717,-2.4723,-2.4728,-2.4713,-2.474,-2.4741,-2.4772,-2.4786,-2.479,-2.4797,-2.478,-2.484,-2.4846,-2.4851,-2.4869,-2.4877,-2.4788,-2.4788,-2.4787,-2.4787,0,-2.474,-2.4755,-2.4773,-2.4779,-2.4787,-2.4808,-2.4798,-2.4808,-2.4798,-2.4793,-2.4819,-2.4819,-2.483,-2.4837,-2.4827,-2.4868,-2.4859,-2.4843,-2.4815,-2.4862,-2.4879,-2.4886,-2.4791,-2.479,-2.479,-2.4789,0,0,-2.481,-2.481,-2.4817,-2.482,-2.4822,-2.4833,-2.4855,-2.4865,-2.4874,-2.488,-2.4897,-2.4918,-2.4903,-2.4908,-2.4899,-2.4916,-2.496,-2.4897,-2.4897,-2.4908,-2.5006,-2.5017,-2.5025,-2.4951,-2.4952,-2.4953,-2.5005,0,-2.4858,-2.4892,-2.4881,-2.4916,-2.4931,-2.4911,-2.493,-2.4934,-2.4931,-2.4943,-2.4941,-2.4955,-2.4935,-2.4938,-2.4954,-2.4951,-2.4979,-2.4948,-2.4966,-2.4967,-2.4964,-2.5034,-2.5046,-2.5095,-2.5012,-2.5013,-2.5014,0,-2.4917,-2.4926,-2.4962,-2.4964,-2.4969,-2.4986,-2.4996,-2.5008,-2.5013,-2.501,-2.5018,-2.5006,-2.5028,-2.5002,-2.5033,-2.5012,-2.5019,-2.502,-2.5021,-2.5021,-2.4992,-2.5034,-2.511,-2.5117,-2.5024,-2.5023,-2.5023,0,-2.4964,-2.4985,-2.5009,-2.5013,-2.5015,-2.5027,-2.5029,-2.5033,-2.5041,-2.505,-2.5055,-2.5068,-2.5074,-2.5085,-2.5077,-2.5059,-2.5109,-2.5083,-2.5107,-2.5107,-2.5116,-2.5115,-2.5193,-2.5124,-2.5124,-2.5124,-2.5124,0,-2.5017,-2.504,-2.503,-2.5045,-2.5071,-2.506,-2.5086,-2.5086,-2.509,-2.5105,-2.509,-2.5105,-2.5095,-2.511,-2.5105,-2.5131,-2.5134,-2.5133,-2.513,-2.5133,-2.5133,-2.5136,-2.5132,-2.5126,-2.5126,-2.5125,-2.5125,0,-2.5072,-2.5066,-2.5092,-2.5093,-2.5094,-2.5113,-2.5114,-2.5129,-2.5126,-2.5146,-2.515,-2.5146,-2.5163,-2.5157,-2.5175,-2.5171,-2.5205,-2.5199,-2.5203,-2.52,-2.5225,-2.5222,-2.5305,-2.5316,-2.5242,-2.5243,-2.5243,0,-2.5106,-2.5123,-2.5126,-2.5135,-2.5138,-2.5153,-2.5162,-2.5153,-2.5162,-2.5171,-2.5185,-2.5201,-2.5212,-2.5241,-2.524,-2.5254,-2.5248,-2.5276,-2.5249,-2.5252,-2.5247,-2.5245,-2.5247,-2.528,-2.5281,-2.5282,-2.5283,0,-2.5166,-2.5163,-2.5175,-2.5187,-2.5197,-2.5207,-2.5214,-2.5223,-2.5215,-2.5227,-2.5244,-2.5253,-2.5273,-2.5288,-2.5302,-2.5305,-2.5293,-2.5292,-2.5298,-2.5299,-2.53,-2.5299,-2.5215,-2.5289,-2.5288,-2.5288,-2.5287,-2.5287,-2.521,-2.5225,-2.523,-2.5245,-2.525,-2.5258,-2.5272,-2.5272,-2.5286,-2.5301,-2.5296,-2.5315,-2.5323,-2.5339,-2.5345,-2.5361,-2.535,-2.5359,-2.5361,-2.5363,-2.5366,-2.53,-2.5363,-2.5363,-2.5363,-2.5363,-2.5363,0,-2.5269,-2.5272,-2.5285,-2.5297,-2.531,-2.5298,-2.5307,-2.5318,-2.5336,-2.5343,-2.5356,-2.5376,-2.5393,-2.5394,-2.541,-2.5423,-2.5417,-2.5427,-2.5425,-2.5426,-2.5375,-2.5367,-2.5431,-2.5431,-2.5431,-2.5431,-2.5431,-2.5431,-2.53,-2.5325,-2.5323,-2.5351,-2.5354,-2.5373,-2.5379,-2.5387,-2.5394,-2.5417,-2.5431,-2.5432,-2.5438,-2.5454,-2.5469,-2.5469,-2.5475,-2.5486,-2.5484,-2.5436,-2.5429,-2.5423,-2.5416,-2.5488,-2.5488,-2.5534,-2.5534,-2.5535]},{"header":{"parameterUnit":"m.s-1","parameterCategory":1,"la1":30.2991,"la2":30.254,"lo1":-89.0895,"lo2":-89.0444,"dy":0.0017,"dx":0.0017,"nx":28,"ny":28,"refTime":"2024-05-29T03:00:00:Z","depth":0,"parameterNumber":3,"parameterNumberName":"V-component_of_WINDS"},"data":[0,0,0,0,0,0,0,0,0,0,0,0,0,0,0,0,0,0,0,0,0,0,0,0,0,0,0,0,0,0,0,0,0,0,0,0,0,0,0,0,0,0,0,0,0,0,0,0,0,0,0,0,0,0,0,0,0,0,3.1655,3.1655,0,3.1641,3.1641,3.164,3.1699,3.1701,3.1703,3.1704,3.1683,3.1681,3.1679,0,0,0,0,0,0,0,0,0,0,0,0,0,3.1729,3.1727,3.1655,3.1655,3.1655,3.1641,3.1641,3.164,3.1699,3.1701,3.1703,3.1705,3.1684,3.1681,3.1679,0,0,0,0,0,0,0,0,0,0,0,0,0,3.1704,3.1727,3.1655,3.1683,3.1685,3.1641,3.1641,3.164,3.1699,3.1701,3.1704,3.1706,3.1685,3.1682,3.1678,3.1605,0,0,3.1668,3.1667,0,0,0,0,0,0,0,0,3.1705,3.1701,3.1679,3.1681,3.1683,3.1675,3.1659,3.1628,3.1698,3.1693,3.1705,3.1708,3.1678,3.1675,3.1667,3.1604,3.1603,3.1668,3.1666,3.1664,3.1664,0,0,0,0,0,0,0,3.1707,3.1702,3.1649,3.1678,3.1681,3.1694,3.1693,3.1653,3.1671,3.1694,3.1698,3.1696,3.1679,3.167,3.1666,3.1603,3.1668,3.1665,3.1663,3.1662,3.1481,3.1478,0,0,0,0,0,0,3.1706,3.1703,3.165,3.1649,3.1701,3.1691,3.169,3.1675,3.1671,3.1673,3.1694,3.1699,3.1674,3.167,3.1666,3.1581,3.1665,3.1661,3.166,3.1484,3.148,3.1477,0,0,0,0,0,0,3.1707,3.17,3.165,3.1677,3.1672,3.1687,3.1669,3.1673,3.1663,3.1671,3.1674,3.1681,3.1676,3.1671,3.1621,3.1581,3.166,3.1657,3.1487,3.1483,3.1479,3.1409,0,0,0,0,0,0,3.1709,3.17,3.1674,3.1676,3.167,3.1606,3.1666,3.1671,3.1658,3.1665,3.166,3.1662,3.1678,3.1625,3.1617,3.1578,3.1654,3.1491,3.1485,3.148,3.1415,3.1403,3.1393,0,0,0,0,0,3.1711,3.1653,3.1672,3.1665,3.1637,3.1604,3.16,3.1622,3.1655,3.1627,3.1633,3.1662,3.1587,3.162,3.1611,3.157,3.1493,3.1487,3.148,3.142,3.1405,3.1393,0,0,0,0,0,0,3.1643,3.1654,3.1675,3.1616,3.1609,3.1614,3.158,3.1605,3.1587,3.1593,3.1619,3.1617,3.1563,3.1561,3.1598,3.1499,3.1545,3.1537,3.1502,3.1488,3.1477,3.1478,3.1652,0,0,0,0,0,3.1621,3.1595,3.1605,3.1552,3.1548,3.1565,3.1551,3.1568,3.1561,3.1557,3.1559,3.1549,3.1524,3.1506,3.1483,3.1416,3.1415,3.1383,3.1372,3.1363,3.1355,3.132,3.1305,3.1456,3.1456,3.1457,0,0,3.1575,3.1578,3.156,3.1539,3.1535,3.1506,3.1561,3.1528,3.1506,3.1552,3.1505,3.1506,3.1497,3.1438,3.1412,3.1435,3.1313,3.1355,3.1347,3.1344,3.1312,3.1297,3.1285,3.1452,3.1453,3.1454,0,0,3.1477,3.1477,3.1434,3.143,3.1425,3.1437,3.1426,3.1428,3.1431,3.1386,3.142,3.1394,3.1349,3.1341,3.1331,3.1233,3.1259,3.1225,3.1166,3.1131,3.1119,3.1109,3.1073,3.1061,3.1217,3.1217,3.1217,0,3.142,3.138,3.1407,3.1372,3.1362,3.1405,3.1361,3.1355,3.1341,3.1332,3.1359,3.1305,3.1302,3.1242,3.1219,3.1209,3.1197,3.1224,3.1119,3.1109,3.11,3.1066,3.1053,3.1213,3.1213,3.1213,3.1214,0,3.131,3.1282,3.1247,3.1236,3.1222,3.1182,3.1202,3.1184,3.1203,3.1212,3.1165,3.1163,3.1141,3.1128,3.1145,3.1071,3.1086,3.1115,3.1162,3.1081,3.105,3.1037,3.1207,3.1208,3.1209,3.121,0,0,3.1167,3.1174,3.116,3.1157,3.1155,3.1133,3.1095,3.1076,3.106,3.1049,3.1018,3.098,3.1008,3.0997,3.1014,3.0984,3.0906,3.1017,3.1018,3.0996,3.0824,3.0801,3.0786,3.0924,3.0922,3.092,3.0825,0,3.1071,3.1008,3.1033,3.0968,3.0942,3.0983,3.095,3.0945,3.0952,3.093,3.0938,3.0911,3.095,3.0944,3.0916,3.0921,3.0872,3.0929,3.0893,3.0892,3.0894,3.077,3.0745,3.0656,3.0813,3.0811,3.0809,0,3.095,3.0938,3.0871,3.0876,3.0866,3.0836,3.0821,3.0799,3.0794,3.0802,3.0791,3.0815,3.0777,3.0825,3.0772,3.0811,3.0798,3.0798,3.0796,3.0792,3.0845,3.0762,3.0627,3.0614,3.0791,3.0792,3.0793,0,3.0852,3.0818,3.0775,3.077,3.0774,3.0753,3.0753,3.0751,3.0738,3.0725,3.0717,3.0698,3.0687,3.0671,3.0689,3.0723,3.0634,3.0683,3.0638,3.0638,3.0617,3.0617,3.0477,3.0609,3.061,3.061,3.061,0,3.0741,3.0699,3.0731,3.0703,3.0657,3.0685,3.0638,3.0643,3.0641,3.0614,3.0648,3.0622,3.0648,3.0624,3.0638,3.0593,3.0587,3.0592,3.0596,3.0588,3.0588,3.0579,3.0585,3.0606,3.0607,3.0608,3.0608,0,3.0623,3.0643,3.0598,3.0607,3.0609,3.0574,3.0581,3.0555,3.0566,3.0532,3.0526,3.0542,3.0516,3.0533,3.0506,3.0515,3.0456,3.0469,3.0458,3.0461,3.0415,3.0419,3.0264,3.0245,3.039,3.0388,3.0387,0,3.0551,3.052,3.0526,3.0513,3.0512,3.0488,3.0476,3.0503,3.0489,3.0482,3.0457,3.0435,3.0418,3.0374,3.0382,3.0362,3.0374,3.0321,3.0371,3.0365,3.0373,3.0374,3.0371,3.031,3.0309,3.0307,3.0306,0,3.0421,3.0433,3.0416,3.0402,3.0388,3.0378,3.037,3.0356,3.0383,3.0365,3.0341,3.0328,3.0302,3.0279,3.0262,3.0261,3.0287,3.0291,3.0279,3.0271,3.0266,3.0268,3.043,3.0294,3.0295,3.0296,3.0297,3.0297,3.0323,3.0298,3.0299,3.0279,3.0277,3.027,3.0247,3.0256,3.0237,3.0219,3.0236,3.0206,3.0202,3.0183,3.0179,3.0155,3.0176,3.016,3.0155,3.015,3.0144,3.0271,3.0152,3.0152,3.0153,3.0153,3.0153,0,3.0195,3.0199,3.018,3.017,3.0154,3.0184,3.0177,3.0161,3.0135,3.0131,3.0115,3.0086,3.0065,3.0072,3.0053,3.0032,3.0044,3.0026,3.0027,3.0026,3.0126,3.0138,3.0017,3.0017,3.0017,3.0017,3.0017,3.0017,3.0126,3.0085,3.0097,3.0055,3.0059,3.0032,3.0025,3.0019,3.0016,2.9983,2.9966,2.9973,2.9973,2.9954,2.9935,2.9938,2.9929,2.9906,2.9913,3.0006,3.0019,3.0032,3.0043,2.9904,2.9904,2.9815,2.9814,2.9814]}]]